FLOCK 4V-9 (46282 NORAD) Tracking and Keplerian Element Data

This shows tracking and keplerian element data for the satellite.

Feedback or suggestion? Click here.




ElementValue
Catalog46282
NameFLOCK 4V-9
Epoch Orbit325
Epoch Day268.81593821
Epoch Year2020
RAAN341.5396
Inclination97.5175
Eccentricity0.000206
Argument of Perigee271.7568
Mean Anonmoly88.3425
Mean Motion15.09850297
Decay Rate5.88E-06
L11 46282U 20061L 20268.81593821 .00000588 00000-0 40228-4 0 9997
L22 46282 97.5175 341.5396 0002060 271.7568 88.3425 15.09850297 3259

Live tracking and technical data element details for FLOCK 4V-9 (NORAD 46282). FLOCK 4V-9 can be tracked NOW for your location showing map with azimuth and elevation plus other details from your city location.

Track the satellite on the map from your city or location and see movement details for azimuth, elevation, latitude, longitude, range, height, and movement on the map or in text.







IsCatalogInMostPopularTable: catalog: 46282, numindb: -1

Insert: records affected: 1


GetName: 46282 FLOCK 4V-9

Hit Count: inserted at: Sat, 26 Sep 2020 14:16:06 GMT